Regional Weather Roundup
Issued by NWS

Home | Current Version | Previous Version | Text Only | Print | Product List | Glossary Off
Versions: 1 2 3 4 5 6 7 8 9 10 11 12 13 14 15 16 17 18 19 20 21 22 23 24 25 26 27 28 29 30 31 32 33 34 35 36 37 38 39 40 41 42 43 44 45 46 47 48 49 50

000
ASUS43 KMKX 290600
RWRWI

WISCONSIN REGIONAL WEATHER ROUNDUP
NATIONAL WEATHER SERVICE MILWAUKEE/SULLIVAN WI
1200 AM CST THU JAN 29 2015

NOTE: "FAIR" INDICATES FEW OR NO CLOUDS BELOW 12,000 FEET WITH NO
SIGNIFICANT WEATHER AND/OR OBSTRUCTIONS TO VISIBILITY.

WIZ001-002-006>008-014>016-023>028-290700-
NORTHWEST WISCONSIN

CITY           SKY/WX    TMP DP  RH WIND       PRES   REMARKS
SUPERIOR ARPT  CLOUDY    30  28  92 W5        29.85S FOG     WCI  25
ASHLAND        CLOUDY    28  27  96 SW3       29.84S FOG
6HR MIN TEMP:  28; 6HR MAX TEMP:  31;

HAYWARD        FOG       27  25  92 CALM      29.82S VSB 3/4
6HR MIN TEMP:  26; 6HR MAX TEMP:  28;

SIREN          CLOUDY    29  29  99 NW7       29.86R FOG     WCI  22
CUMBERLAND     FOG       28  27  93 NW5       29.83R VSB 1   WCI  23
RICE LAKE      FOG       28  27  96 CALM      29.85R VSB 1/2
CHETEK         CLOUDY    27  26  95 CALM      29.83R FOG
LADYSMITH      CLOUDY    28  24  85 CALM      29.82S
EAU CLAIRE     NOT AVBL
MENOMONIE      CLOUDY    30  27  88 CALM      29.83R FOG
NEW RICHMOND   CLOUDY    29  29 100 NW6       29.85R FOG     WCI  23
OSCEOLA        CLOUDY    30  30 100 NW6       29.89R FOG     WCI  24
$$

WIZ003>005-009-010-017-018-290700-
NORTH CENTRAL WISCONSIN

CITY           SKY/WX    TMP DP  RH WIND       PRES   REMARKS
MANITOWISH WTR CLOUDY    26  20  80 CALM      29.78F
ARBOR VITAE    CLOUDY    28  22  79 S3        29.78F
WOODRUFF       CLOUDY    28  22  79 S3        29.78F
RHINELANDER    CLOUDY    26  20  77 SW5       29.78F WCI  20
6HR MIN TEMP:  26; 6HR MAX TEMP:  27;

EAGLE RIVER    CLOUDY    26  20  79 CALM      29.78F
LAND O LAKES   CLOUDY    27  22  82 S3        29.79F
PHILLIPS       CLOUDY    26  22  83 SW6       29.78S WCI  20
TOMAHAWK       CLOUDY    26  21  82 CALM      29.79F
MEDFORD        CLOUDY    25  23  91 S6        29.78F FOG     WCI  18
MERRILL        CLOUDY    26  23  88 S3        29.80S
$$

WIZ029-030-035-036-043>047-290700-
CENTRAL WISCONSIN

CITY           SKY/WX    TMP DP  RH WIND       PRES   REMARKS
WAUSAU         CLOUDY    26  23  88 SE5       29.78F FOG     WCI  20
6HR MIN TEMP:  26; 6HR MAX TEMP:  28;

MOSINEE        CLOUDY    27  27 100 SE5       29.80F FOG     WCI  21
MARSHFIELD     CLOUDY    27  24  89 E3        29.79F FOG
6HR MIN TEMP:  27; 6HR MAX TEMP:  29;

STEVENS POINT  CLOUDY    26  20  81 E3        29.80F
WAUPACA        CLOUDY    31  24  75 E3        29.81F
WAUTOMA        NOT AVBL
WISC RAPIDS    CLOUDY    27  22  81 CALM      29.81F
6HR MIN TEMP:  27; 6HR MAX TEMP:  28;

CAMP DOUGLAS   MIX PCPN  28  28 100 N3        29.79F
$$

WIZ011>013-019>022-031-037>040-048>050-290700-
NORTHEAST WISCONSIN

CITY           SKY/WX    TMP DP  RH WIND       PRES   REMARKS
ANTIGO         CLOUDY    25  22  88 S10       29.78F WCI  15
SHAWANO        CLOUDY    31  25  78 CALM      29.83F
OCONTO         CLOUDY    31  26  80 CALM      29.84F
STURGEON BAY   CLOUDY    32  25  74 S12       29.85F WCI  23
6HR MIN TEMP:  30; 6HR MAX TEMP:  32;

GREEN BAY      CLOUDY    32  25  75 S8        29.82F WCI  25
6HR MIN TEMP:  30; 6HR MAX TEMP:  32;

MANITOWOC      NOT AVBL
APPLETON       CLOUDY    30  23  74 SE6       29.82F WCI  24
CLINTONVILLE   CLOUDY    30  23  74 CALM      29.82F
OSHKOSH        CLOUDY    31  23  72 CALM      29.80F
6HR MIN TEMP:  30; 6HR MAX TEMP:  31;

$$

WIZ032>034-041-042-053>061-290700-
SOUTHWEST WISCONSIN

CITY           SKY/WX    TMP DP  RH WIND       PRES   REMARKS
LA CROSSE      CLOUDY    33  27  78 NW3       29.80S
6HR MIN TEMP:  33; 6HR MAX TEMP:  35;

SPARTA         CLOUDY    31  28  88 NE5       29.81S FOG     WCI  26
VIROQUA        CLOUDY    31  29  94 E3        29.76F
BOSCOBEL       CLOUDY    34  28  79 N3        29.77F
6HR MIN TEMP:  33; 6HR MAX TEMP:  34;

PRAIRIE DU CHI CLOUDY    33  28  82 CALM      29.76S
PLATTEVILLE    CLOUDY    30  28  92 NE6       29.73F WCI  24
$$

WIZ056-057-062-063-064-067-068-290700-
SOUTH CENTRAL WISCONSIN

CITY           SKY/WX    TMP DP  RH WIND       PRES   REMARKS
REEDSBURG      CLOUDY    31  27  84 CALM      29.78S
BARABOO/DELLS  CLOUDY    32  26  81 CALM      29.78S
LONE ROCK      NOT AVBL
MINERAL POINT  CLOUDY    32  30  93 E5        29.74S WCI  27
MADISON        CLOUDY    32  25  75 S5        29.77F WCI  27
6HR MIN TEMP:  31; 6HR MAX TEMP:  32; 6HR PCP: TRACE;

MIDDLETON      CLOUDY    33  27  77 SE3       29.77F
WATERTOWN      CLOUDY    32  24  73 SE7       29.78F WCI  26
MONROE         PTCLDY    32  28  86 SE9       29.73F WCI  24
JANESVILLE     MOCLDY    34  27  75 S9        29.77F WCI  26
$$

WIZ051-052-058>065-066-070>072-290700-
SOUTHEAST WISCONSIN

CITY           SKY/WX    TMP DP  RH WIND       PRES   REMARKS
MILWAUKEE      LGT RAIN  33  23  66 S10       29.81F WCI  25
6HR MIN TEMP:  32; 6HR MAX TEMP:  33; 6HR PCP:  0.01;

WAUKESHA       MIX PCPN  30  21  69 SE9       29.80F WCI  22
MILWAUKEE/TIMM CLOUDY    32  21  64 SE7       29.82F WCI  26
RACINE         CLOUDY    33  25  72 S13       29.83F WCI  24
6HR MIN TEMP:  32; 6HR MAX TEMP:  34; 6HR PCP: TRACE;

BURLINGTON     CLOUDY    32  23  69 S8G17     29.79F WCI  25
KENOSHA        CLOUDY    34  23  64 S12       29.80F WCI  25
6HR MIN TEMP:  30; 6HR MAX TEMP:  34; 6HR PCP: TRACE;

FOND DU LAC    MIX PCPN  32  23  69 S6        29.80F WCI  26
6HR MIN TEMP:  30; 6HR MAX TEMP:  32; 6HR PCP: TRACE;

SHEBOYGAN      FLURRIES  33  24  69 S10       29.82F WCI  25
6HR MIN TEMP:  31; 6HR MAX TEMP:  33; 6HR PCP: TRACE;

WEST BEND      CLOUDY    32  21  64 SE6       29.81F WCI  26
JUNEAU         MIX PCPN  31  25  78 SE5       29.80F WCI  26
$$

LSZ147-162-290700-
LAKE SUPERIOR

STATION/POSITION TIME  TEMP    WIND        PRES    WAVE
                       AIR SEA DIR/SP/G            HT/PER
                 (UTC) (F)     (DEG/KT/KT) (MB)    (FT/S)
DEVILS ISLAND    0500   31     250/ 10/ 11 1011.1R
PORT WING        0500   30     250/  3/  6 1010.8S
SAXON HARBOR     0500   31     220/  4/  9 1010.5S
$$

LMZ867-665-643>646-290700-
LAKE MICHIGAN

STATION/POSITION TIME  TEMP    WIND        PRES    WAVE
                       AIR SEA DIR/SP/G            HT/PER
                 (UTC) (F)     (DEG/KT/KT) (MB)    (FT/S)
NORTHPORT PIER   0512   32     160/  7/ 17 1012.2F
SISTER BAY       0513   32     190/ 17/ 21   N/A
KEWAUNEE LAKESHO 0500   33     180/ 18/ 22 1011.0F
SHEBOYGAN LAKESH 0500   34     170/ 22/ 24 1011.7F
PORT WASHINGTON  0540   34     170/ 15/ 22 1010.8F
MILWAUKEE LAKESH 0500   33     160/ 14/ 15   N/A
KENOSHA   LAKESH 0500   33     170/ 15/ 18 1010.8F
$$

TC  - TEMPERATURE IN CELSIUS
VSB - VISIBILITY IN STATUTE MILES
WCI - WIND CHILL INDEX
HX  - HEAT INDEX




USA.gov is the U.S. government's official web portal to all federal, state and local government web resources and services.